Location: Mactaquac Provincial Park
(45.9573°N, 66.8897°W)
Time: 12:32:52
(UTC-03:00)

Cosmos 1867 - Visible Passes

Search period start: 17 September 2014 00:00
Search period end: 27 September 2014 00:00
Orbit: 778 x 798 km, 65.0° (Epoch: 16 September)

Date Brightness Start Highest point End Pass type
(mag) Time Alt. Az. Time Alt. Az. Time Alt. Az.
17 Sep 4.1 21:18:11 10° NNW 21:23:26 45° NE 21:25:10 34° E visible
17 Sep 5.0 23:02:03 10° NW 23:05:50 31° W 23:05:50 31° W visible
18 Sep 4.4 20:46:41 10° NNW 20:51:43 36° NE 20:54:36 21° E visible
18 Sep 4.3 22:30:16 10° NW 22:35:16 46° WSW 22:35:16 46° WSW visible
19 Sep 4.7 20:15:12 10° NNW 20:19:57 29° NE 20:24:05 13° E visible
19 Sep 3.8 21:58:33 10° NW 22:03:56 61° WSW 22:04:46 54° SSW visible
20 Sep 3.6 21:26:54 10° NW 21:32:22 81° WSW 21:34:20 41° SSE visible
20 Sep 6.0 23:12:46 10° W 23:15:01 13° WSW 23:15:01 13° WSW visible
21 Sep 3.5 20:55:18 10° NW 21:00:47 79° NE 21:03:59 26° SE visible
21 Sep 5.7 22:40:11 10° WNW 22:43:44 18° WSW 22:44:40 17° WSW visible
22 Sep 3.7 20:23:44 10° NNW 20:29:09 61° NE 20:33:43 14° SE visible
22 Sep 5.4 22:08:03 10° WNW 22:12:20 24° WSW 22:14:25 19° SW visible
23 Sep 4.0 19:52:11 10° NNW 19:57:28 48° NE 20:02:42 10° ESE visible
23 Sep 5.0 21:36:07 10° NW 21:40:54 32° WSW 21:44:16 17° SSW visible
24 Sep 4.6 21:04:19 10° NW 21:09:26 43° WSW 21:14:15 11° S visible
25 Sep 4.2 20:32:35 10° NW 20:37:56 57° WSW 20:43:13 10° SSE visible
26 Sep 3.8 20:00:55 10° NW 20:06:23 76° WSW 20:11:47 10° SSE visible
26 Sep 6.3 21:47:09 10° W 21:49:02 12° WSW 21:50:55 10° SW visible
